Location: ?????????
(55.6553°N, 38.9075°E)
Time: 22:01:52
(UTC+00:00)

Cosmos 468 Rocket - Pass Details

Date: 18 October 2019
Orbit: 745 x 779 km, 74.0° (Epoch: 17 November)

Event Time Altitude Azimuth Distance (km) Brightness Sun altitude
Rises 03:14:31 0° 330° (NNW) 3,230 6.9 -7.1°
Reaches altitude 10° 03:16:56 10° 326° (NNW) 2,296 6.1 -6.8°
Maximum altitude 03:22:01 56° 250° (WSW) 893 4.1 -6.1°
Drops below altitude 10° 03:27:01 10° 173° (S) 2,263 6.7 -5.4°
Sets 03:29:23 0° 169° (S) 3,181 7.5 -5.1°
